EW7199 Weather Reports


Display with metric or nautical units.
time (UTC)temp
F
wind
direction
speed
MPH
gust
MPH
rain 1hr
in
rain 24hr
in
rain mn
in
humidity
%
barometer
mb
20260902173909 81 244 3.0 3.0 0.00 0.00 0.00 70 1014.6
20260902173410 81 272 3.0 6.0 0.00 0.00 0.00 68 1014.8
20260902172910 80 263 3.0 6.0 0.00 0.00 0.00 73 1014.9
20260902172408 81 262 3.0 3.0 0.00 0.00 0.00 74 1014.8
20260902171908 81 249 3.0 6.0 0.00 0.00 0.00 74 1014.8
20260902171408 82 247 3.0 3.0 0.00 0.00 0.00 73 1014.8
20260902170409 82 239 3.0 3.0 0.00 0.00 0.00 75 1014.8
20260902165407 82 243 3.0 3.0 0.00 0.00 0.00 71 1015.0
20260902164909 82 234 3.0 3.0 0.00 0.00 0.00 70 1015.2
20260902163409 82 260 2.0 3.0 0.00 0.00 0.00 71 1015.4
20260902162909 82 268 3.0 3.0 0.00 0.00 0.00 71 1015.4
20260902162409 82 261 3.0 3.0 0.00 0.00 0.00 72 1015.5
20260902161908 82 259 3.0 3.0 0.00 0.00 0.00 71 1015.5
20260902161410 82 263 2.0 3.0 0.00 0.00 0.00 71 1015.5
20260902160909 81 254 1.0 3.0 0.00 0.00 0.00 72 1015.6
20260902160409 81 275 2.0 3.0 0.00 0.00 0.00 72 1015.6
20260902155908 81 247 2.0 6.0 0.00 0.00 0.00 73 1015.7
20260902155409 81 264 3.0 8.0 0.00 0.00 0.00 72 1015.8
20260902154909 82 258 3.0 7.0 0.00 0.00 0.00 70 1015.7
20260902153909 82 256 2.0 7.0 0.00 0.00 0.00 66 1015.7
20260902153408 82 246 5.0 7.0 0.00 0.00 0.00 64 1015.8
20260902152908 83 265 6.0 9.0 0.00 0.00 0.00 66 1015.9
20260902152408 84 264 5.0 7.0 0.00 0.00 0.00 69 1015.8
20260902151908 84 257 3.0 6.0 0.00 0.00 0.00 69 1015.7
20260902151408 85 263 2.0 5.0 0.00 0.00 0.00 68 1015.5
20260902150908 85 269 3.0 6.0 0.00 0.00 0.00 66 1015.5
20260902150408 85 233 3.0 7.0 0.00 0.00 0.00 66 1015.4
20260902145908 86 250 3.0 6.0 0.00 0.00 0.00 69 1015.5
20260902145408 86 241 5.0 5.0 0.00 0.00 0.00 68 1015.3
20260902144909 88 236 3.0 5.0 0.00 0.00 0.00 67 1015.0
20260902144409 90 242 2.0 5.0 0.00 0.00 0.00 53 1014.9
20260902143908 90 131 0.0 3.0 0.00 0.00 0.00 45 1014.8
20260902143409 90 90 1.0 3.0 0.00 0.00 0.00 45 1014.6
20260902142908 90 140 1.0 3.0 0.00 0.00 0.00 45 1014.6
20260902142408 90 78 2.0 3.0 0.00 0.00 0.00 44 1014.6
20260902141908 91 77 1.0 3.0 0.00 0.00 0.00 47 1014.8
20260902141408 91 203 0.0 2.0 0.00 0.00 0.00 50 1014.7
20260902140908 91 212 0.0 3.0 0.00 0.00 0.00 49 1014.7
20260902140408 91 214 1.0 2.0 0.00 0.00 0.00 48 1014.7
20260902135906 91 237 1.0 2.0 0.00 0.00 0.00 46 1014.7
20260902134410 91 230 1.0 2.0 0.00 0.00 0.00 45 1014.8
20260902133407 92 138 2.0 3.0 0.00 0.00 0.00 46 1014.4
20260902132409 93 212 2.0 3.0 0.00 0.00 0.00 43 1014.5
20260902131907 93 206 1.0 3.0 0.00 0.00 0.00 44 1014.2
20260902131408 93 198 1.0 3.0 0.00 0.00 0.00 44 1014.4
20260902130908 92 211 2.0 3.0 0.00 0.00 0.00 46 1014.5
20260902130408 92 235 2.0 3.0 0.00 0.00 0.00 48 1014.4
20260902125907 92 224 3.0 3.0 0.00 0.00 0.00 48 1014.6
20260902125408 93 222 2.0 5.0 0.00 0.00 0.00 46 1014.6
20260902124908 93 211 2.0 5.0 0.00 0.00 0.00 44 1014.7
20260902124411 92 227 2.0 3.0 0.00 0.00 0.00 47 1014.7
20260902123906 92 233 3.0 3.0 0.00 0.00 0.00 46 1014.8
20260902123408 92 229 2.0 3.0 0.00 0.00 0.00 47 1014.8
20260902122908 91 219 2.0 5.0 0.00 0.00 0.00 49 1014.8
20260902122408 91 221 3.0 5.0 0.00 0.00 0.00 49 1015.0
20260902121912 91 236 3.0 5.0 0.00 0.00 0.00 51 1015.0
20260902121407 91 244 3.0 5.0 0.00 0.00 0.00 51 1015.1
20260902120908 91 248 3.0 3.0 0.00 0.00 0.00 50 1015.2
20260902115407 91 225 2.0 5.0 0.00 0.00 0.00 50 1015.3
20260902114907 92 229 3.0 5.0 0.00 0.00 0.00 51 1015.3
20260902114408 92 233 2.0 3.0 0.00 0.00 0.00 48 1015.3
20260902113908 92 223 3.0 3.0 0.00 0.00 0.00 46 1015.3
20260902113408 92 221 3.0 3.0 0.00 0.00 0.00 46 1015.4
20260902112908 92 225 3.0 3.0 0.00 0.00 0.00 46 1015.4
20260902112409 92 232 2.0 3.0 0.00 0.00 0.00 47 1015.5
20260902111908 92 216 2.0 3.0 0.00 0.00 0.00 45 1015.5
20260902111408 91 215 2.0 3.0 0.00 0.00 0.00 47 1015.5
20260902110908 91 229 3.0 3.0 0.00 0.00 0.00 48 1015.6
20260902110407 91 225 2.0 3.0 0.00 0.00 0.00 47 1015.6
20260902105408 91 218 2.0 3.0 0.00 0.00 0.00 48 1015.8
20260902104908 90 231 2.0 3.0 0.00 0.00 0.00 48 1015.8
20260902104407 90 225 3.0 3.0 0.00 0.00 0.00 48 1015.9
20260902103908 89 227 3.0 3.0 0.00 0.00 0.00 49 1016.0
20260902103408 89 222 3.0 3.0 0.00 0.00 0.00 50 1016.1
20260902102908 89 228 3.0 3.0 0.00 0.00 0.00 52 1016.2
20260902102408 89 229 2.0 3.0 0.00 0.00 0.00 55 1016.2
20260902101907 88 225 3.0 3.0 0.00 0.00 0.00 55 1016.2
20260902101407 88 220 3.0 3.0 0.00 0.00 0.00 60 1016.3
20260902100908 87 217 3.0 5.0 0.00 0.00 0.00 60 1016.3
20260902100409 87 246 3.0 5.0 0.00 0.00 0.00 62 1016.4
20260902095908 87 223 3.0 3.0 0.00 0.00 0.00 60 1016.4
20260902094908 87 220 2.0 3.0 0.00 0.00 0.00 60 1016.4
20260902093908 86 246 2.0 3.0 0.00 0.00 0.00 64 1016.3
20260902093407 87 247 2.0 3.0 0.00 0.00 0.00 63 1016.3
20260902092407 87 250 2.0 3.0 0.00 0.00 0.00 65 1016.4
20260902091907 86 214 2.0 3.0 0.00 0.00 0.00 62 1016.4
20260902091407 86 223 3.0 3.0 0.00 0.00 0.00 60 1016.4
20260902090908 86 224 3.0 3.0 0.00 0.00 0.00 62 1016.4
20260902090407 86 246 2.0 3.0 0.00 0.00 0.00 61 1016.4
20260902085907 86 235 3.0 3.0 0.00 0.00 0.00 62 1016.4
20260902085408 86 247 3.0 3.0 0.00 0.00 0.00 59 1016.5
20260902084906 86 246 2.0 3.0 0.00 0.00 0.00 58 1016.5
20260902084407 86 263 2.0 3.0 0.00 0.00 0.00 58 1016.5
20260902083908 86 238 2.0 3.0 0.00 0.00 0.00 59 1016.5
20260902083408 85 229 1.0 3.0 0.00 0.00 0.00 59 1016.5
20260902082907 85 248 2.0 3.0 0.00 0.00 0.00 60 1016.5
20260902082407 85 230 2.0 3.0 0.00 0.00 0.00 60 1016.5
20260902081410 85 236 2.0 3.0 0.00 0.00 0.00 56 1016.4
20260901193408 88 12 1.0 3.0 0.00 0.00 0.00 39 1015.9
20260901191908 88 140 0.0 2.0 0.00 0.00 0.00 44 1015.9
20260901191408 88 139 2.0 3.0 0.00 0.00 0.00 45 1015.8
20260901190908 88 63 2.0 3.0 0.00 0.00 0.00 40 1015.7
20260901190408 88 129 1.0 3.0 0.00 0.00 0.00 46 1015.6
20260901185908 89 128 1.0 3.0 0.00 0.00 0.00 44 1015.5
20260901185408 89 99 1.0 2.0 0.00 0.00 0.00 42 1015.5
20260901184908 89 94 1.0 3.0 0.00 0.00 0.00 37 1015.5
20260901184407 89 336 1.0 2.0 0.00 0.00 0.00 37 1015.4
20260901183908 89 285 0.0 2.0 0.00 0.00 0.00 39 1015.4
20260901183408 89 318 0.0 3.0 0.00 0.00 0.00 38 1015.4
20260901182909 89 356 1.0 3.0 0.00 0.00 0.00 39 1015.3
20260901181408 90 319 2.0 3.0 0.00 0.00 0.00 39 1015.2
20260901180410 90 340 0.0 3.0 0.00 0.00 0.00 39 1015.1
20260901175908 90 321 2.0 3.0 0.00 0.00 0.00 39 1015.0
20260901175408 90 255 1.0 2.0 0.00 0.00 0.00 40 1014.9
20260901174909 90 304 0.0 2.0 0.00 0.00 0.00 41 1014.9
20260901174408 90 291 1.0 3.0 0.00 0.00 0.00 42 1014.8